Starlink 1179

operational
NORAD ID: 45085 Int'l Des: 2020-006 Owner: SPXS Country: US Constellation: starlink
LEOCIRCULAR

Über Starlink 1179

Beschreibung wird geladen...

Live-Position

3D-Globus wird geladen...

Nächste Überflüge

Höhenverlauf

Altitude vs Time

uPlot chart will show altitude changes over time

Zweizeiliger Elementsatz

1 45085U 20006AT 25261.25011574 .00306938 47119-4 86383-3 0 9997
2 45085 53.0386 249.4338 0004465 21.8942 216.8978 15.93040339 6067
Epoch: 18. Sept. 2025 • Age: 14 hours

Aktueller Status

Höhe 294.0 km
Geschwindigkeit 7.73 km/s
Subsatellitenpunkt -12.90°S, 61.29°W
Startdatum 29. Jan. 2020
Alter 5.6 years
Typ internet

Technische Details

Klassifizierung Payload
Masse 260.00 kg
Trockenmasse 248.00 kg
Gesamtmasse 260.00 kg
Länge 0.20 m
Durchmesser 2.80 m
Spannweite 9.00 m
Form Box + pan
Hersteller SPXS
Bus-Typ Starlink
Phasenstatus In Orbit
Besitzer/Staat SPXS/US

Große Konstellationen

Loading constellations...